STARLINK-2642, 48437

Orbit data source: Space-Track

STARLINK-2642, 48437 is a payload satellite owned by SpaceX/Seattle (US) in LEO that was launched on Sun, 09 May 2021 UTC via an FALCON 9 launch vehicle from the Air Force Eastern Test Range (AFETR). Payload-class satellites include a variety of spacecraft equipped with specific instruments for various scientific and technological missions. These include communications satellites like Starlink; space stations such as the ISS; scientific satellites like the Hubble; Earth observation satellites from companies like Planet Labs, Umbra, and HawkEye 360; GPS; miniature CubeSats for education and research; and military/defense satellites.

Loading next visibility...
Identifier
48437, 2021-040K
Orbit
LEO
Country
Flag of USUS
Related business
Manufacturer
SpaceX/Seattle
Mission
Operational Commercial Communications
Bus & Motor
STARLINK, Unknown motor
Mass
260 kg wet, ~248 kg dry
Launch date (UTC)
2021-05-09 (5 years ago)
Launch vehicle
FALCON 9
Launch site
Air Force Eastern Test Range (AFETR)
Object type
Payload
Rocket body
Debris
Shape & HBR
Box + 1 Pan, 10.1 m
Radar Cross Section
13.562 m², Large (>1 m²)

Expand to show TLE details & history
Last TLE update: 2 days ago

TLE from 2 days ago
0 STARLINK-2642
1 48437U 21040K   26171.42127138  .00001343  00000-0  55013-4 0  9997
2 48437  53.1607  73.1188 0001361 104.1473 255.9679 15.31706290282233
Epoch: 2026-06-20T10:06Z
TLE epoch observation values (Epoch: 2026-06-20T10:06:37.847Z)
Latitude
-0.00007°
Longitude
12.82492°
Altitude
471.848 km
Speed
7.631 km/s
True Right ascension
04h 52m 28s
True Declination
0° 00' 00"
Sunlit
Object was in daylight at epoch
Visualization orbit readout
Latitude
Unknown
Longitude
Unknown
Altitude
Unknown
Speed
Unknown
Apparent Right ascension
Unknown
Apparent Declination
Unknown
Sunlit
N/A
Visualization observer readout
Local Sidereal Time
21:24:17
Azimuth
Unknown
Elevation
Unknown
Doppler factor
Unknown
Orbital elements
Apogee altitude
471.91 km
Perigee altitude
470.046 km
Semi-major axis
6,849.115 km
Eccentricity
0.00014
Inclination
53.1607°
RAAN
73.1188°
Arg. of periapsis
104.1473°
True anomaly
255.95277°
Mean anomaly
255.9679°
Eccentric anomaly
255.96033°
Mean motion
3.82905 °/min
Orbital period
94.02 mins
BSTAR
0.000055013
Loading maneuver chart data...
Computing Atmospheric mass density...

Documentation

Showing up to 5 results
|